Buffalo, WY

1:42 PM MDT on July 22, 2017 (GMT -0600)
Johnson County

Weather History for KBYG - August, 2013

Change the Weather History Date:

Tuesday, August 20, 2013

  Actual Average Record
Temperature  
Mean Temperature 78 °F 69 °F  
Max Temperature 90 °F 84 °F 90 °F (2013)
Min Temperature 66 °F 55 °F 44 °F (2016)
Degree Days  
Heating Degree Days 0 1  
Month to date heating degree days 0 20  
Since 1 June heating degree days 101 208  
Since 1 July heating degree days 1 45  
Cooling Degree Days 13 5  
Month to date cooling degree days 147 136  
Year to date cooling degree days 492 397  
Since 1 June cooling degree days 482 390  
Growing Degree Days 29 (Base 50)    
Moisture  
Dew Point 36 °F    
Average Humidity 26    
Maximum Humidity 36    
Minimum Humidity 15    
Precipitation  
Precipitation 0.00 in 0.03 in 0.05 in (1998)
Month to date precipitation 0.21 0.60  
Year to date precipitation 4.40 10.06  
Sea Level Pressure  
Sea Level Pressure 29.84 in    
Wind  
Wind Speed 9 mph (WNW)    
Max Wind Speed 25 mph    
Max Gust Speed 33 mph    
Visibility 10 miles    
Events      
T = Trace of Precipitation, MM = Missing Value Source: NWS Daily Summary

Daily Weather History Graph

Daily Weather History Graph

Search for Another Location

Airport or City:

Trip Planner

Search our weather history database for the weather conditions in past years. The results will help you decide how hot, cold, wet, or windy it might be!

Date:

Astronomy

Aug. 20, 2013 Rise Set
Actual Time 6:16 AM MDT 8:03 PM MDT
Civil Twilight 5:45 AM MDT 8:34 PM MDT
Nautical Twilight 5:07 AM MDT 9:11 PM MDT
Astronomical Twilight 4:26 AM MDT 9:52 PM MDT
Moon 7:34 PM MDT (8/20) 5:50 AM MDT (8/20)
Length of Visible Light 14h 49m
Length of Day
13h 47m
Full, 100% of the Moon is Illuminated
Aug 20
Full
Aug 20
Full
Aug 28
Last Quarter
Sep 5
New
Sep 12
First Quarter

Hourly Weather History & Observations

Time (MDT) Temp. Dew Point Humidity Pressure Visibility Wind Dir Wind Speed Gust Speed Precip Events Conditions
12:53 AM 71.1 °F 41.0 °F 34% 29.82 in 10.0 mi West 9.2 mph - N/A   Clear
1:53 AM 70.0 °F 41.0 °F 35% 29.81 in 10.0 mi West 10.4 mph - N/A   Clear
2:53 AM 72.0 °F 41.0 °F 33% 29.79 in 10.0 mi West 5.8 mph - N/A   Clear
3:53 AM 71.1 °F 39.0 °F 31% 29.79 in 10.0 mi West 5.8 mph - N/A   Scattered Clouds
4:53 AM 73.0 °F 35.1 °F 25% 29.79 in 10.0 mi West 8.1 mph - N/A   Clear
5:53 AM 71.1 °F 33.1 °F 25% 29.81 in 10.0 mi West 6.9 mph - N/A   Clear
6:53 AM 75.0 °F 35.1 °F 23% 29.83 in 10.0 mi NNW 11.5 mph - N/A   Clear
7:53 AM 77.0 °F 36.0 °F 23% 29.85 in 10.0 mi NNW 11.5 mph - N/A   Clear
8:53 AM 75.9 °F 35.1 °F 23% 29.87 in 10.0 mi NNW 19.6 mph 26.5 mph N/A   Clear
9:53 AM 80.1 °F 36.0 °F 20% 29.89 in 10.0 mi North 23.0 mph 26.5 mph N/A   Clear
10:53 AM 82.9 °F 35.1 °F 18% 29.89 in 10.0 mi North 11.5 mph - N/A   Clear
11:53 AM 84.9 °F 32.0 °F 15% 29.89 in 10.0 mi NNW 13.8 mph 19.6 mph N/A   Clear
12:53 PM 84.9 °F 32.0 °F 15% 29.88 in 10.0 mi NNW 10.4 mph 16.1 mph N/A   Clear
1:53 PM 87.1 °F 33.1 °F 15% 29.88 in 10.0 mi NNW 8.1 mph - N/A   Clear
2:53 PM 84.9 °F 34.0 °F 16% 29.86 in 10.0 mi NNE 4.6 mph - N/A   Clear
3:53 PM 88.0 °F 34.0 °F 15% 29.84 in 10.0 mi SSE 5.8 mph - N/A   Clear
4:53 PM 88.0 °F 33.1 °F 14% 29.82 in 10.0 mi ESE 4.6 mph - N/A   Clear
5:53 PM 88.0 °F 34.0 °F 15% 29.81 in 10.0 mi SSE 5.8 mph - N/A   Clear
6:53 PM 86.0 °F 35.1 °F 16% 29.81 in 10.0 mi East 4.6 mph - N/A   Clear
7:53 PM 81.0 °F 36.0 °F 20% 29.83 in 10.0 mi East 3.5 mph - N/A   Clear
8:53 PM 73.9 °F 37.9 °F 27% 29.87 in 10.0 mi WSW 5.8 mph - N/A   Clear
9:53 PM 75.0 °F 37.9 °F 26% 29.88 in 10.0 mi Calm Calm - N/A   Clear
10:53 PM 73.9 °F 39.0 °F 28% 29.87 in 10.0 mi SSW 5.8 mph - N/A   Clear
11:53 PM 75.0 °F 41.0 °F 29% 29.86 in 10.0 mi South 8.1 mph - N/A   Clear